sat.trackr.live / text

‹ back to catalog

STARLINK-34577

NORAD 64719 · 2025-142Z

PAYLOAD ACTIVE UNKNOWN

§ Identity

Operator
Country
US
Launch date
2025-06-28
Launch site
AFWTR
Launch vehicle
Mass (kg)
RCS (m²)

Purposes: comms

External: N2YO · Heavens-Above · Gunter

§ Orbital elements

Epoch: 2026-09-20T04:12:44.940960Z

Period
94.14 min
Inclination
70.0010°
Eccentricity
0.0003409
Mean motion
15.29593973 rev/d
Perigee alt
474.7 km
Apogee alt
479.4 km
Semi-major
6,855.2 km
B*
4.8874e-4
RAAN
181.6338°
Arg perigee
269.4201°
Mean anomaly
90.6583°
Rev number
6,868

§ Raw data

STARLINK-345771 64719U 25142Z   26263.17552015  .00013954  00000+0  48874-3 0  99912 64719  70.0010 181.6338 0003409 269.4201  90.6583 15.29593973 68689

JSON: /api/v1/satellites/64719 · /tle

For live sub-satellite position, see the globe view (requires WebGL).

§ Visibility from observer

Set your observer location to see the next 7 days of passes ≥ 10°. The values pass through the URL so the page stays shareable.

No JS? Fill the form by hand. The geolocation button needs JavaScript.